"TOA5","MOW","CPU:UNC_MeetingWaters","DataHourly"
"TIMESTAMP","SondeTempC","SpCond","DOSat","DOmg","pH","Turb","BattVolt_Min"
"TS","","","","","","",""
"","Smp","Smp","Smp","Smp","Smp","Smp","Min"
"2003-06-01 00:00:00",19.1100006104,0.192000001669,96.0999984741,8.89000034332,7.28999996185,160.5,12.5799999237
"2003-06-01 01:00:00",18.6599998474,0.211999997497,98.5999984741,9.21000003815,7.34000015259,118.599998474,12.5600004196
"2003-06-01 02:00:00",18.2900009155,0.219999998808,99.1999969482,9.32999992371,7.38999986649,91.5,12.5500001907
"2003-06-01 03:00:00",17.9799995422,0.231000006199,100.400001526,9.51000022888,7.40999984741,74.5999984741,12.529999733
"2003-06-01 04:00:00",17.6700000763,0.241999998689,101.400001526,9.65999984741,7.46999979019,52.4000015259,12.5100002289
"2003-06-01 05:00:00",17.3799991608,0.254999995232,101.300003052,9.71000003815,7.51000022888,42.2000007629,12.4799995422
"2003-06-01 06:00:00",17.1599998474,0.266000002623,101.900001526,9.81000041962,7.53000020981,32.9000015259,12.4600000381
"2003-06-01 07:00:00",16.9699993134,0.270000010729,102.699996948,9.93000030518,7.55999994278,29.0,12.4399995804
"2003-06-01 08:00:00",16.8500003815,0.279000014067,103.599998474,10.0399999619,7.59999990463,22.7999992371,12.4399995804
"2003-06-01 09:00:00",16.7700004578,0.282999992371,103.300003052,10.0200004578,7.61000013351,19.0,12.470000267
"2003-06-01 10:00:00",16.8199996948,0.298000007868,104.300003052,10.1099996567,7.63000011444,16.8999996185,13.3199996948
"2003-06-01 11:00:00",17.4300003052,0.317999988794,107.800003052,10.3199996948,7.69000005722,16.6000003815,13.220000267
"2003-06-01 12:00:00",18.1399993896,0.333000004292,109.199996948,10.3000001907,7.73999977112,16.0,13.1800003052
"2003-06-01 13:00:00",18.8199996948,0.328999996185,109.400001526,10.1800003052,7.73999977112,14.8000001907,13.1599998474
"2003-06-01 14:00:00",19.5799999237,0.333999991417,110.099998474,10.0900001526,7.73000001907,15.0,13.1599998474
"2003-06-01 15:00:00",19.7399997711,0.337000012398,110.599998474,10.1000003815,7.73000001907,14.0,13.1400003433
"2003-06-01 16:00:00",19.8400001526,0.337000012398,109.0,9.93000030518,7.73999977112,14.1000003815,12.8999996185
"2003-06-01 17:00:00",19.6200008392,0.331000000238,107.0,9.80000019073,7.73000001907,16.7999992371,12.779999733
"2003-06-01 18:00:00",19.1299991608,0.32800000906,105.199996948,9.72000026703,7.71999979019,20.2999992371,12.7299995422
"2003-06-01 19:00:00",18.7299995422,0.324999988079,104.0,9.68999958038,7.71000003815,20.7000007629,12.6700000763
"2003-06-01 20:00:00",18.5400009155,0.324999988079,103.599998474,9.68999958038,7.71000003815,17.8999996185,12.6400003433
"2003-06-01 21:00:00",18.2700004578,0.326999992132,102.0,9.60000038147,7.69999980927,13.8999996185,12.6199998856
"2003-06-01 22:00:00",17.9200000763,0.33599999547,101.5,9.61999988556,7.67999982834,10.5,12.6000003815
"2003-06-01 23:00:00",17.5900001526,0.354000002146,102.0,9.72999954224,7.67999982834,10.3000001907,12.5699996948
"2003-06-02 00:00:00",17.25,0.36700001359,102.099998474,9.80000019073,7.69000005722,10.3000001907,12.5500001907
"2003-06-02 01:00:00",16.8700008392,0.368999987841,101.199996948,9.80000019073,7.67999982834,9.69999980927,12.529999733
"2003-06-02 02:00:00",16.4899997711,0.368000000715,101.099998474,9.86999988556,7.69000005722,8.89999961853,12.5100002289
"2003-06-02 03:00:00",16.2800006866,0.360000014305,102.400001526,10.0399999619,7.69000005722,8.89999961853,12.5
"2003-06-02 04:00:00",16.0699996948,0.354000002146,102.699996948,10.1199998856,7.69000005722,8.69999980927,12.4899997711
"2003-06-02 05:00:00",15.7600002289,0.342000007629,104.099998474,10.3199996948,7.69000005722,8.80000019073,12.470000267
"2003-06-02 06:00:00",15.470000267,0.33599999547,104.5,10.4200000763,7.69000005722,8.19999980927,12.4399995804
"2003-06-02 07:00:00",15.2100000381,0.333000004292,103.900001526,10.4200000763,7.69000005722,7.40000009537,12.4099998474
"2003-06-02 08:00:00",15.029999733,0.340000003576,106.5,10.720000267,7.69000005722,8.0,12.4300003052
"2003-06-02 09:00:00",15.0600004196,0.349000006914,107.099998474,10.779999733,7.69999980927,7.69999980927,12.5900001526
"2003-06-02 10:00:00",15.3199996948,0.377000004053,107.800003052,10.779999733,7.69999980927,8.69999980927,13.1199998856
"2003-06-02 11:00:00",15.75,0.388999998569,110.0,10.8999996185,7.75,9.19999980927,13.3299999237
"2003-06-02 12:00:00",16.6900005341,0.372999995947,112.599998474,10.9399995804,7.82999992371,8.0,13.2399997711
"2003-06-02 13:00:00",17.5,0.363000005484,114.5,10.9399995804,7.82999992371,7.69999980927,13.1999998093
"2003-06-02 14:00:00",18.2199993134,0.356999993324,115.099998474,10.8400001526,7.80000019073,8.39999961853,13.1599998474
"2003-06-02 15:00:00",18.5900001526,0.351000010967,113.199996948,10.5799999237,7.82000017166,9.19999980927,13.1199998856
"2003-06-02 16:00:00",18.8199996948,0.344000011683,112.300003052,10.4399995804,7.82000017166,8.39999961853,12.8599996567
"2003-06-02 17:00:00",18.8500003815,0.344000011683,111.800003052,10.3999996185,7.80000019073,7.80000019073,12.8000001907
"2003-06-02 18:00:00",18.6000003815,0.368999987841,108.099998474,10.1000003815,7.76999998093,7.30000019073,12.75
"2003-06-02 19:00:00",18.4400005341,0.381000012159,106.699996948,10.0,7.78000020981,8.39999961853,12.6999998093
"2003-06-02 20:00:00",18.2399997711,0.363000005484,105.800003052,9.96000003815,7.76000022888,8.5,12.6599998474
"2003-06-02 21:00:00",18.1299991608,0.361000001431,104.099998474,9.81999969482,7.75,9.80000019073,12.6400003433
"2003-06-02 22:00:00",17.9599990845,0.365000009537,103.400001526,9.78999996185,7.73999977112,9.39999961853,12.6199998856
"2003-06-02 23:00:00",17.7399997711,0.36700001359,102.900001526,9.77999973297,7.73000001907,11.0,12.5900001526
"2003-06-03 00:00:00",17.5200004578,0.363000005484,102.900001526,9.82999992371,7.63999986649,8.19999980927,12.5699996948
"2003-06-03 01:00:00",17.2099990845,0.352999985218,101.699996948,9.77999973297,7.67000007629,8.10000038147,12.5500001907
"2003-06-03 02:00:00",17.0100002289,0.344999998808,101.800003052,9.82999992371,7.65999984741,7.90000009537,12.5399999619
"2003-06-03 03:00:00",16.8199996948,0.340999990702,99.3000030518,9.61999988556,7.65999984741,8.19999980927,12.5200004578
"2003-06-03 04:00:00",16.6100006104,0.344000011683,101.400001526,9.86999988556,7.65999984741,10.0,12.5
"2003-06-03 05:00:00",16.5100002289,0.349000006914,103.900001526,10.1400003433,7.67000007629,10.8999996185,12.4799995422
"2003-06-03 06:00:00",16.3799991608,0.356999993324,104.199996948,10.1999998093,7.69000005722,11.3000001907,12.4600000381
"2003-06-03 07:00:00",16.25,0.365999996662,103.900001526,10.1899995804,7.69999980927,11.1999998093,12.4399995804
"2003-06-03 08:00:00",16.1700000763,0.377999991179,103.900001526,10.2100000381,7.71000003815,10.5,12.4600000381
"2003-06-03 09:00:00",16.3600006104,0.38299998641,106.0,10.3699998856,7.75,9.10000038147,12.8299999237
"2003-06-03 10:00:00",16.6399993896,0.386999994516,108.099998474,10.5200004578,7.76999998093,7.90000009537,13.0
"2003-06-03 11:00:00",17.1499996185,0.407999992371,110.5,10.6400003433,7.80999994278,12.6999998093,13.2399997711
"2003-06-03 12:00:00",17.7700004578,0.388000011444,112.099998474,10.6499996185,7.84000015259,15.0,13.1800003052
"2003-06-03 13:00:00",18.1200008392,0.379000008106,110.800003052,10.4499998093,7.86999988556,10.3000001907,12.8199996948
"2003-06-03 14:00:00",18.3799991608,0.36700001359,111.0,10.4200000763,7.84999990463,8.60000038147,12.779999733
"2003-06-03 15:00:00",18.5400009155,0.342000007629,109.0,10.1999998093,7.78999996185,8.80000019073,12.8400001526
"2003-06-03 16:00:00",18.7099990845,0.319000005722,108.900001526,10.1499996185,7.76000022888,8.39999961853,12.8599996567
"2003-06-03 17:00:00",18.6599998474,0.294999986887,106.900001526,9.97999954224,7.71999979019,7.80000019073,12.6999998093
"2003-06-03 18:00:00",18.6100006104,0.31099998951,105.800003052,9.89000034332,7.69999980927,8.69999980927,12.6700000763
"2003-06-03 19:00:00",18.5400009155,0.351000010967,104.400001526,9.77000045776,7.69999980927,7.19999980927,12.6599998474
"2003-06-03 20:00:00",18.4599990845,0.363000005484,103.0,9.64999961853,7.69000005722,8.69999980927,12.6400003433
"2003-06-03 21:00:00",18.6000003815,0.345999985933,98.0,9.14999961853,7.59999990463,41.7999992371,12.6199998856
"2003-06-03 22:00:00",19.2900009155,0.231999993324,98.9000015259,9.11999988556,7.48000001907,192.0,12.6000003815
"2003-06-03 23:00:00",19.3899993896,0.171000003815,96.8000030518,8.90999984741,7.40000009537,313.5,12.6000003815
"2003-06-04 00:00:00",19.4099998474,0.155000001192,95.0,8.73999977112,7.26000022888,243.5,12.5799999237
"2003-06-04 01:00:00",19.3199996948,0.166999995708,89.4000015259,8.23999977112,7.23999977112,161.699996948,12.5600004196
"2003-06-04 02:00:00",19.2199993134,0.179000005126,89.1999969482,8.23999977112,7.21999979019,133.800003052,12.529999733
"2003-06-04 03:00:00",19.1100006104,0.196999996901,90.0,8.32999992371,7.23000001907,110.599998474,12.5100002289
"2003-06-04 04:00:00",19.0499992371,0.212999999523,90.9000015259,8.42000007629,7.26000022888,88.8000030518,12.4899997711
"2003-06-04 05:00:00",18.9699993134,0.22499999404,91.1999969482,8.46000003815,7.28999996185,73.3000030518,12.470000267
"2003-06-04 06:00:00",18.9200000763,0.229000002146,91.5999984741,8.51000022888,7.30999994278,62.5999984741,12.470000267
"2003-06-04 07:00:00",18.8500003815,0.228000000119,92.3000030518,8.59000015259,7.32000017166,51.0,12.470000267
"2003-06-04 08:00:00",18.7999992371,0.229000002146,93.4000015259,8.69999980927,7.32999992371,39.0,12.4600000381
"2003-06-04 09:00:00",18.7900009155,0.234999999404,94.0,8.75,7.36000013351,29.7000007629,12.4600000381
"2003-06-04 10:00:00",18.8299999237,0.246000006795,95.9000015259,8.92000007629,7.40999984741,20.2999992371,12.5799999237
"2003-06-04 11:00:00",18.9099998474,0.263000011444,99.6999969482,9.26000022888,7.46000003815,17.0,12.8000001907
"2003-06-04 12:00:00",19.0599994659,0.27500000596,101.0,9.35000038147,7.51000022888,13.6999998093,12.8699998856
"2003-06-04 13:00:00",19.3099994659,0.307000011206,103.099998474,9.5,7.57000017166,12.1999998093,13.0600004196
"2003-06-04 14:00:00",19.8299999237,0.31099998951,103.699996948,9.44999980927,7.59999990463,13.6000003815,13.1099996567
"2003-06-04 15:00:00",20.3299999237,0.312000006437,104.599998474,9.43999958038,7.61000013351,14.8000001907,12.8100004196
"2003-06-04 16:00:00",20.7199993134,0.310000002384,103.400001526,9.26000022888,7.59999990463,18.1000003815,12.8400001526
"2003-06-04 17:00:00",20.7600002289,0.29699999094,102.0,9.13000011444,7.57999992371,28.1000003815,12.8800001144
"2003-06-04 18:00:00",20.5699996948,0.277999997139,100.5,9.02999973297,7.57999992371,55.5,12.7100000381
"2003-06-04 19:00:00",20.4300003052,0.27500000596,99.0999984741,8.92000007629,7.55999994278,69.1999969482,12.6700000763
"2003-06-04 20:00:00",20.3199996948,0.282000005245,99.5999984741,8.98999977112,7.53999996185,62.2000007629,12.6400003433
"2003-06-04 21:00:00",20.2000007629,0.28900000453,98.4000015259,8.89999961853,7.55000019073,62.2000007629,12.6300001144
"2003-06-04 22:00:00",20.0900001526,0.291999995708,98.1999969482,8.90999984741,7.55000019073,69.0,12.6199998856
"2003-06-04 23:00:00",19.8700008392,0.342999994755,99.6999969482,9.07999992371,7.57999992371,224.399993896,12.6000003815
"2003-06-05 00:00:00",19.6700000763,0.293999999762,99.1999969482,9.06999969482,7.57000017166,123.199996948,12.5900001526
"2003-06-05 01:00:00",19.6100006104,0.280999988317,99.5,9.10999965668,7.55000019073,76.0999984741,12.5799999237
"2003-06-05 02:00:00",19.5599994659,0.272000014782,99.3000030518,9.10000038147,7.53000020981,60.0,12.5699996948
"2003-06-05 03:00:00",19.4899997711,0.268999993801,99.0,9.09000015259,7.5,46.0,12.5500001907
"2003-06-05 04:00:00",19.3299999237,0.264999985695,99.5,9.15999984741,7.48999977112,36.7000007629,12.529999733
"2003-06-05 05:00:00",19.1900005341,0.264999985695,98.0999984741,9.06000041962,7.51000022888,29.0,12.4899997711
"2003-06-05 06:00:00",19.0,0.266000002623,97.6999969482,9.06000041962,7.48999977112,24.0,12.470000267
"2003-06-05 07:00:00",18.8400001526,0.270999997854,94.8000030518,8.81000041962,7.48000001907,20.2000007629,12.4499998093
"2003-06-05 08:00:00",18.7199993134,0.294999986887,100.599998474,9.38000011444,7.51999998093,18.2000007629,12.5
"2003-06-05 09:00:00",18.6599998474,0.319000005722,102.599998474,9.57999992371,7.59000015259,17.8999996185,12.7899999619
"2003-06-05 10:00:00",18.6200008392,0.331000000238,104.400001526,9.75,7.61999988556,16.0,13.1400003433
"2003-06-05 11:00:00",19.0699996948,0.340999990702,108.300003052,10.0200004578,7.73000001907,13.5,13.1999998093
"2003-06-05 12:00:00",19.7600002289,0.340000003576,111.599998474,10.1899995804,7.76999998093,12.3000001907,13.1400003433
"2003-06-05 13:00:00",20.3500003815,0.349000006914,110.800003052,9.98999977112,7.76999998093,12.1999998093,13.1099996567
"2003-06-05 14:00:00",20.8600006104,0.354000002146,111.400001526,9.94999980927,7.76999998093,11.6999998093,13.1000003815
"2003-06-05 15:00:00",21.2199993134,0.363999992609,111.599998474,9.89999961853,7.76000022888,13.6000003815,13.0699996948
"2003-06-05 16:00:00",21.0,0.374000012875,109.900001526,9.78999996185,7.82000017166,15.5,12.8500003815
"2003-06-05 17:00:00",20.8899993896,0.361999988556,106.300003052,9.48999977112,7.80999994278,17.5,12.8000001907
"2003-06-05 18:00:00",20.7299995422,0.34999999404,103.0,9.22000026703,7.73999977112,23.1000003815,12.720000267
"2003-06-05 19:00:00",20.4400005341,0.337000012398,101.400001526,9.13000011444,7.69000005722,36.2000007629,12.6700000763
"2003-06-05 20:00:00",20.1100006104,0.314999997616,99.4000015259,9.01000022888,7.65999984741,57.0999984741,12.6400003433
"2003-06-05 21:00:00",19.8899993896,0.31400001049,96.0,8.73999977112,7.65000009537,53.0999984741,12.6199998856
"2003-06-05 22:00:00",19.5100002289,0.312999993563,98.3000030518,9.02000045776,7.63999986649,28.0,12.6000003815
"2003-06-05 23:00:00",19.2199993134,0.326999992132,99.6999969482,9.19999980927,7.61999988556,19.7000007629,12.5799999237
"2003-06-06 00:00:00",18.9099998474,0.340000003576,97.9000015259,9.09000015259,7.63999986649,13.6999998093,12.5699996948
"2003-06-06 01:00:00",18.6200008392,0.356999993324,98.0,9.14999961853,7.63999986649,10.8000001907,12.5399999619
"2003-06-06 02:00:00",18.3099994659,0.375999987125,97.0999984741,9.13000011444,7.65000009537,8.60000038147,12.5200004578
"2003-06-06 03:00:00",18.0300006866,0.391999989748,96.1999969482,9.09000015259,7.65000009537,9.30000019073,12.5100002289
"2003-06-06 04:00:00",17.8199996948,0.393000006676,96.6999969482,9.18000030518,7.65000009537,8.0,12.4899997711
"2003-06-06 05:00:00",17.5699996948,0.381999999285,94.8000030518,9.05000019073,7.63000011444,7.80000019073,12.470000267
"2003-06-06 06:00:00",17.3099994659,0.384000003338,94.6999969482,9.07999992371,7.63000011444,8.69999980927,12.4399995804
"2003-06-06 07:00:00",17.1100006104,0.377000004053,97.3000030518,9.38000011444,7.63000011444,8.10000038147,12.4200000763
"2003-06-06 08:00:00",17.0100002289,0.368999987841,98.4000015259,9.5,7.65000009537,7.90000009537,12.4799995422
"2003-06-06 09:00:00",17.1000003815,0.358999997377,102.0,9.82999992371,7.65000009537,8.80000019073,12.7299995422
"2003-06-06 10:00:00",17.4500007629,0.345999985933,104.900001526,10.029999733,7.71000003815,6.69999980927,13.1099996567
"2003-06-06 11:00:00",18.0100002289,0.351000010967,110.800003052,10.470000267,7.76000022888,6.5,13.2299995422
"2003-06-06 12:00:00",18.6299991608,0.358000010252,112.300003052,10.4799995422,7.78000020981,7.30000019073,13.1599998474
"2003-06-06 13:00:00",19.3700008392,0.368000000715,118.400001526,10.8900003433,7.80000019073,7.69999980927,12.8800001144
"2003-06-06 14:00:00",19.9799995422,0.374000012875,122.599998474,11.1400003433,7.82000017166,8.10000038147,13.1000003815
"2003-06-06 15:00:00",20.2900009155,0.388000011444,116.900001526,10.5600004196,7.73000001907,9.69999980927,13.0500001907
"2003-06-06 16:00:00",20.4300003052,0.377999991179,111.199996948,10.0200004578,7.82999992371,11.1000003815,12.8199996948
"2003-06-06 17:00:00",20.4599990845,0.354999989271,109.699996948,9.88000011444,7.82000017166,10.0,12.7700004578
"2003-06-06 18:00:00",20.2199993134,0.347000002861,106.099998474,9.60000038147,7.76999998093,8.5,12.7399997711
"2003-06-06 19:00:00",20.1800003052,0.349000006914,104.0,9.42000007629,7.69999980927,8.30000019073,12.6899995804
"2003-06-06 20:00:00",20.0400009155,0.349000006914,101.099998474,9.18000030518,7.67999982834,7.69999980927,12.6599998474
"2003-06-06 21:00:00",19.9400005341,0.351999998093,98.3000030518,8.93999958038,7.67999982834,7.19999980927,12.6400003433
"2003-06-06 22:00:00",19.8400001526,0.358000010252,96.5999984741,8.81000041962,7.65999984741,7.30000019073,12.6199998856
"2003-06-06 23:00:00",19.7399997711,0.368999987841,97.5999984741,8.90999984741,7.63000011444,7.5,12.6099996567
"2003-06-07 00:00:00",19.6800003052,0.377999991179,97.5,8.92000007629,7.65000009537,8.10000038147,12.6000003815
"2003-06-07 01:00:00",19.6000003815,0.389999985695,96.5,8.84000015259,7.63999986649,8.10000038147,12.5799999237
"2003-06-07 02:00:00",19.5300006866,0.407999992371,97.0,8.89999961853,7.67000007629,8.19999980927,12.5699996948
"2003-06-07 03:00:00",19.4699993134,0.405000001192,96.9000015259,8.89999961853,7.65000009537,8.69999980927,12.5500001907
"2003-06-07 04:00:00",19.3199996948,0.354999989271,98.0,9.02999973297,7.55999994278,27.7999992371,12.5399999619
"2003-06-07 05:00:00",19.6800003052,0.307000011206,84.6999969482,7.73999977112,7.51000022888,21.7999992371,12.5100002289
"2003-06-07 06:00:00",19.7099990845,0.254000008106,96.3000030518,8.81000041962,7.40000009537,48.7999992371,12.4899997711
"2003-06-07 07:00:00",20.0400009155,0.148000001907,100.099998474,9.09000015259,7.28000020981,80.4000015259,12.470000267
"2003-06-07 08:00:00",20.3400001526,0.118000000715,101.5,9.15999984741,7.21000003815,93.3000030518,12.470000267
"2003-06-07 09:00:00",20.5100002289,0.112999998033,99.5,8.96000003815,7.19999980927,59.5999984741,12.470000267
"2003-06-07 10:00:00",20.5499992371,0.115999996662,96.9000015259,8.71000003815,7.15999984741,55.2000007629,12.4799995422
"2003-06-07 11:00:00",20.6900005341,0.122000001371,99.1999969482,8.89000034332,7.09999990463,64.1999969482,12.720000267
"2003-06-07 12:00:00",21.1900005341,0.151999995112,100.199996948,8.89999961853,7.26000022888,37.5,12.970000267
"2003-06-07 13:00:00",21.2399997711,0.155000001192,97.8000030518,8.68000030518,7.26000022888,36.2000007629,12.9099998474
"2003-06-07 14:00:00",21.1800003052,0.166999995708,98.5,8.75,7.26000022888,51.0,12.8500003815
"2003-06-07 15:00:00",21.6800003052,0.15000000596,102.0,8.97000026703,7.19999980927,364.700012207,12.8199996948
"2003-06-07 16:00:00",22.9500007629,0.070000000298,102.199996948,8.77999973297,7.28999996185,385.399993896,12.8900003433
"2003-06-07 17:00:00",22.8299999237,0.0799999982119,100.199996948,8.61999988556,7.21000003815,141.5,12.8900003433
"2003-06-07 18:00:00",22.5400009155,0.101000003517,99.1999969482,8.57999992371,7.19000005722,83.1999969482,12.7600002289
"2003-06-07 19:00:00",22.25,0.128999993205,99.4000015259,8.64999961853,7.23000001907,64.0,12.6800003052
"2003-06-07 20:00:00",21.9500007629,0.144999995828,97.9000015259,8.56999969482,7.23999977112,55.5,12.6400003433
"2003-06-07 21:00:00",21.8700008392,0.0419999994338,109.699996948,9.60999965668,7.25,374.399993896,12.6199998856
"2003-06-07 22:00:00",21.3400001526,0.070000000298,106.300003052,9.40999984741,7.13999986649,200.5,12.6000003815
"2003-06-07 23:00:00",21.2900009155,0.097000002861,104.800003052,9.28999996185,7.15999984741,246.699996948,12.6000003815
"2003-06-08 00:00:00",21.1200008392,0.123000003397,103.300003052,9.18000030518,7.21999979019,152.199996948,12.5799999237
"2003-06-08 01:00:00",21.0,0.158999994397,104.099998474,9.27999973297,7.28000020981,75.6999969482,12.5699996948
"2003-06-08 02:00:00",21.0,0.142000004649,103.599998474,9.23999977112,7.28999996185,63.5999984741,12.5600004196
"2003-06-08 03:00:00",21.1800003052,0.138999998569,102.599998474,9.10999965668,7.23999977112,41.7000007629,12.5399999619
"2003-06-08 04:00:00",20.9200000763,0.167999997735,102.400001526,9.14000034332,7.28000020981,41.2999992371,12.529999733
"2003-06-08 05:00:00",20.7800006866,0.187999993563,101.199996948,9.06000041962,7.36000013351,35.0,12.5
"2003-06-08 06:00:00",20.6800003052,0.190999999642,101.199996948,9.06999969482,7.34000015259,30.8999996185,12.4799995422
"2003-06-08 07:00:00",20.5799999237,0.190999999642,100.0,8.97999954224,7.36000013351,28.7000007629,12.470000267
"2003-06-08 08:00:00",20.5200004578,0.202999994159,102.5,9.22000026703,7.36000013351,23.5,12.4799995422
"2003-06-08 09:00:00",20.5200004578,0.216999992728,103.699996948,9.31999969482,7.44000005722,20.8999996185,12.4799995422
"2003-06-08 10:00:00",20.5699996948,0.22499999404,104.099998474,9.35999965668,7.48000001907,19.0,12.6599998474
"2003-06-08 11:00:00",20.5900001526,0.226999998093,104.5,9.39000034332,7.51999998093,16.7000007629,12.8000001907
"2003-06-08 12:00:00",20.7700004578,0.231000006199,107.300003052,9.60000038147,7.55000019073,14.3999996185,12.9099998474
"2003-06-08 13:00:00",21.0799999237,0.240999996662,108.699996948,9.67000007629,7.59000015259,12.6999998093,13.0799999237
"2003-06-08 14:00:00",21.5,0.268999993801,108.599998474,9.57999992371,7.63999986649,12.0,13.0699996948
"2003-06-08 15:00:00",21.6399993896,0.305000007153,108.0,9.5,7.65000009537,14.1999998093,12.9300003052
"2003-06-08 16:00:00",22.9699993134,0.178000003099,100.800003052,8.64000034332,7.53999996185,32.5,12.7299995422
"2003-06-08 17:00:00",25.4099998474,0.070000000298,103.900001526,8.52000045776,7.57999992371,601.200012207,12.7399997711
"2003-06-08 18:00:00",24.9699993134,0.108000002801,99.6999969482,8.23999977112,7.26000022888,462.0,12.7299995422
"2003-06-08 19:00:00",24.2800006866,0.148000001907,98.8000030518,8.27000045776,7.28000020981,267.5,12.6599998474
"2003-06-08 20:00:00",23.7000007629,0.202000007033,100.0,8.46000003815,7.30000019073,209.100006104,12.6400003433
"2003-06-08 21:00:00",23.1900005341,0.212999999523,100.0,8.55000019073,7.32999992371,164.300003052,12.6300001144
"2003-06-08 22:00:00",22.7600002289,0.233999997377,99.6999969482,8.59000015259,7.38999986649,128.100006104,12.6199998856
"2003-06-08 23:00:00",22.4200000763,0.252000004053,99.5,8.63000011444,7.40999984741,131.0,12.6099996567
"2003-06-09 00:00:00",22.1100006104,0.272000014782,99.8000030518,8.69999980927,7.44999980927,102.300003052,12.6000003815
"2003-06-09 01:00:00",21.5900001526,0.263999998569,102.900001526,9.06000041962,7.46999979019,77.4000015259,12.5799999237
"2003-06-09 02:00:00",21.5499992371,0.24699999392,102.5,9.03999996185,7.48999977112,63.2000007629,12.5500001907
"2003-06-09 03:00:00",21.3899993896,0.207000002265,99.6999969482,8.81999969482,7.42999982834,58.5,12.529999733
"2003-06-09 04:00:00",21.25,0.203999996185,98.1999969482,8.69999980927,7.38999986649,46.2999992371,12.5200004578
"2003-06-09 05:00:00",21.0900001526,0.218999996781,98.0999984741,8.72999954224,7.36999988556,41.0,12.4899997711
"2003-06-09 06:00:00",20.8700008392,0.240999996662,99.4000015259,8.88000011444,7.40999984741,38.2000007629,12.470000267
"2003-06-09 07:00:00",20.6499996185,0.256999999285,101.300003052,9.09000015259,7.44000005722,39.5,12.4499998093
"2003-06-09 08:00:00",20.5100002289,0.273000001907,101.300003052,9.11999988556,7.5,34.0,12.4499998093
"2003-06-09 09:00:00",20.4500007629,0.301999986172,102.900001526,9.27000045776,7.55000019073,27.6000003815,12.470000267
"2003-06-09 10:00:00",20.5100002289,0.351000010967,101.400001526,9.11999988556,7.61999988556,21.6000003815,12.7700004578
"2003-06-09 11:00:00",20.9200000763,0.384999990463,106.800003052,9.52999973297,7.69000005722,18.7000007629,13.1499996185